Tracking 30070 objects as of 15-Jan-2025
HD Live streaming from Space Station
objects crossing your sky now

CZ-3B DEB

Track CZ-3B DEB now!


NORAD ID: 40193
Int'l Code: 2011-077S
Perigee: 692.0 km
Apogee: 42,269.0 km
Inclination: 25.2 °
Period: 771.0 minutes
Semi major axis: 27851 km
RCS: Unknown
Launch date: December 19, 2011
Source: People's Republic of China (PRC)
Launch site: Xichang Space Center, China (XSC)

Note: This is SATELLITE DEBRIS
Your satellite tracking list
Your tracking list is empty




NASA's NSSDC Master Catalog

Two Line Element Set (TLE):
1 40193U 11077S   25015.61195014  .00000041  00000-0  13036-2 0  9993
2 40193  25.1700 165.1463 7464037 111.5742 338.0080  1.86779485 66483
Source of the keplerian elements: AFSPC